Location: ????????
(41.9580°N, 44.1367°E)
Time: 04:16:03
(UTC+00:00)

Daily predictions for brighter satellites

Satellite Brightness Start Highest point End
(mag) Time Altitude Azimuth Time Altitude Azimuth Time Altitude Azimuth
Meteor 1-28 Rocket 3.6 00:02:45 36° SW 00:03:37 42° W 00:07:12 10° NNW
Helios 1B rocket 4.1 00:05:04 10° NNW 00:08:01 20° WNW 00:09:14 17° W
GEOS 3 Rocket 4.0 00:05:35 10° SE 00:10:53 69° NE 00:16:12 10° NNW
Cosmos 1943 4.1 00:10:33 10° NNW 00:16:07 51° ENE 00:21:39 10° SE
SWARM A 4.3 00:15:21 31° SSW 00:16:40 54° W 00:19:55 10° N
Iridium 4 Rocket 4.1 00:11:31 10° NNW 00:16:43 47° W 00:20:37 19° SSW
SL-8 R/B 3.7 00:14:06 25° SW 00:16:51 71° SSE 00:21:39 10° ENE
Cosmos 1378 Rocket 3.7 00:12:44 10° NNW 00:16:59 51° W 00:19:45 20° SSW
Cosmos 44 4.3 00:14:49 10° NNW 00:19:58 53° NE 00:24:48 10° SE
Cosmos 407 Rocket 3.6 00:17:03 21° SSW 00:20:35 68° WNW 00:25:52 10° NNE
Cosmos 1908 Rocket 3.6 00:18:56 22° SSW 00:21:39 63° W 00:25:58 10° N
SL-8 Rocket 4.0 00:16:26 10° S 00:22:37 83° E 00:28:48 10° N
Cosmos 2366 rocket 4.3 00:18:12 10° S 00:24:29 71° E 00:30:50 10° NNE
Cosmos 1707 2.8 00:21:39 10° NNW 00:25:25 56° W 00:28:21 15° S
IRS-P3 4.1 00:22:09 10° N 00:27:30 76° WNW 00:32:06 14° SSW
MSX 3.9 00:21:52 10° N 00:27:33 64° WNW 00:32:15 15° SSW
BREEZE-M DEB (TANK) 2.5 00:26:58 24° WSW 00:28:23 65° NNW 00:30:40 10° NE
ATLAS 5 CENTAUR R/B 4.1 00:26:30 10° W 00:28:59 13° WSW 00:28:59 13° WSW
USA 215 3.4 00:23:39 10° NE 00:30:12 71° SE 00:35:46 15° SW
CZ-4C R/B 3.1 00:22:52 10° NW 00:30:19 88° NE 00:38:52 10° SE
IDEFIX/ARIANE 42P 3.4 00:32:49 10° N 00:37:30 36° WNW 00:41:13 15° SW
Cosmos 1733 3.9 00:39:49 10° S 00:43:34 55° E 00:47:20 10° NNE
Cosmos 2341 Rocket 4.2 00:38:05 12° SSW 00:43:45 54° WNW 00:49:52 10° N
Cosmos 1356 Rocket 4.4 00:41:41 16° SW 00:44:06 28° WNW 00:47:38 10° NNW
Cosmos 2218 Rocket 4.1 00:41:51 10° SSW 00:48:15 76° W 00:54:37 10° N
Cosmos 1025 Rocket 3.8 00:47:21 10° N 00:51:36 55° E 00:55:50 10° SSE
Cosmos 1400 Rocket 2.8 00:49:00 10° S 00:52:51 78° E 00:56:45 10° NNE
Meteor 2-20 4.4 00:49:03 10° NNW 00:55:11 72° W 01:01:17 10° S
Cosmos 1727 Rocket 4.3 00:49:35 10° N 00:55:51 76° E 01:02:06 10° SSE
Okean 2 Rocket 4.0 00:52:32 10° S 00:56:53 52° E 01:01:18 10° NNE
ALOS 2.8 00:54:32 10° NNE 00:59:10 60° E 01:03:46 10° S
Cosmos 1844 Rocket 3.9 00:54:37 10° S 00:59:50 40° ESE 01:05:05 10° NE
SL-08 R/B 3.6 00:55:11 10° S 00:59:58 51° W 01:04:48 10° NNW
Sich 1 Rocket 3.7 00:56:17 10° S 01:00:39 82° E 01:05:04 10° N
Cosmos 1603 3.7 00:56:36 10° NNW 01:02:11 68° WSW 01:07:46 10° SSE
USA 267 4.4 00:56:31 10° E 01:02:43 47° NNE 01:08:54 10° NW
Cosmos 1782 Rocket 4.1 00:59:58 10° SSW 01:04:02 40° WNW 01:08:10 10° N
CZ-2D R/B 3.8 01:01:27 10° N 01:05:16 45° WNW 01:09:08 10° SW
Cosmos 1340 2.9 01:02:33 10° NNW 01:06:10 46° W 01:09:45 10° S
FENGYUN 3A 3.8 01:02:20 10° NNE 01:07:48 80° ESE 01:13:12 10° S
CZ-2C R/B 2.3 01:04:46 10° N 01:09:19 68° WNW 01:13:52 10° SSW
Cosmos 1626 2.2 01:11:07 10° NNW 01:14:45 58° W 01:18:22 10° S
Cosmos 1674 3.5 01:11:40 10° NNW 01:15:08 33° W 01:18:35 10° SSW
Cosmos 2151 Rocket 4.1 01:11:10 10° S 01:15:29 64° E 01:19:52 10° NNE
SL-16 R/B 4.0 01:16:57 10° W 01:18:29 11° W 01:20:02 10° WSW
Lacrosse 5 3.9 01:15:36 10° WNW 01:19:17 20° NNW 01:22:57 10° NNE
Cosmos 1900 4.4 01:16:30 10° SW 01:21:30 75° WNW 01:26:28 10° NNE
